Location: Squirrel Cove
(50.1074°N, 124.9139°W)
Time: 01:13:44
(UTC-08:00)

BlueWalker 3 - Pass Details

Date: 07 December 2022
Orbit: 499 x 517 km, 53.2° (Epoch: 29 January)

Event Time Altitude Azimuth Distance (km) Brightness Sun altitude
Rises 19:11:09 0° 292° (WNW) 2,628 6.6 -26.7°
Reaches altitude 10° 19:13:28 10° 283° (WNW) 1,735 5.6 -27.0°
Enters shadow 19:16:25 33° 240° (WSW) 868 3.5 -27.5°
